カタログに戻る

STARLINK-34846

運用中通信VLEO
NORAD 66972·PAYLOAD·🇺🇸 United States

打ち上げ Dec 8, 2025 から Cape Canaveral Space Force Station

Loading…

次のパス (今後24時間)

TLE

最新Source: CelesTrak SupGP

元期: Sep 14, 2026, 23:12 UTC

1 66972C 25288P   26257.96715278  .00015375  00000+0  55682-3 0  2578
2 66972  43.0021  34.3538 0001553 276.9632 196.5662 15.27574586    13

AllMySatでSTARLINK-34846をリアルタイム追跡

Download on the App Store